SCP
0 -0 -0 0 0 0 -0 0 0 0 0 0 0 0 0 0 0 0 -0 0 -0 -0 -0 -0 -0 -0 -0 -0 -0 -0 -0 0 0 -0 -0 -0 -0 -0 -0 -0 -0 -0 -0 -0 -0 -0 -0 -0 -0
0 0 0 0 -0 -0 0 0 0 0 0 0 0 0 0 0 0 0 0 -0 -0 -0 0 0 -0 -0 -0 -0 -0 -0 -0 0 0 0 -0 -0 -0 -0 -0 -0 -0 -0 -0 -0 -0 -0 -0 -0 -0
0 0 -0 0 0 0 0 0 0 0 0 0 0 0 0 0 0 -0 0 -0 -0 -0 -0 -0 -0 -0 -0 -0 -0 -0 -0 0 -0 -0 -0 -0 -0 -0 -0 -0 -0 -0 -0 -0 -0 -0 -0 -0 -0
0 0 -0 0 0 0 0 -0 0 0 0 0 0 0 0 0 0 0 -0 -0 -0 -0 -0 -0 -0 -0 -0 -0 -0 -0 0 -0 0 0 0 0 -0 -0 -0 -0 -0 -0 -0 -0 -0 -0 -0 -0 -0
0 -0 -0 0 0 0 -0 0 0 0 0 0 0 0 0 -0 -0 -0 -0 -0 -0 -0 -0 -0 -0 -0 -0 -0 -0 0 -0 -0 0 0 0 0 0 -0 -0 -0 -0 -0 -0 -0 -0 -0 -0 -0 -0
-0 0 0 0 0 0 0 0 0 0 0 0 0 0 0 0 -0 -0 0 -0 -0 -0 -0 0 -0 -0 -0 -0 0 0 0 0 0 0 0 0 0 0 -0 -0 -0 -0 -0 -0 -0 -0 -0 -0 -0
-0 0 0 0 0 0 -0 -0 0 0 0 0 0 0 0 0 0 0 0 0 0 0 -0 0 0 -0 -0 -0 0 0 0 0 0 0 1 0 1 0 0 0 -0 -0 -0 0 0 -0 -0 -0 -0
-0 -0 0 -0 0 -0 -0 0 0 0 0 0 0 0 0 -0 0 0 0 -0 0 0 0 0 0 0 0 0 0 0 0 0 0 0 1 0 0 0 -0 0 0 0 0 0 0 0 0 -0 -0
0 0 0 0 0 -0 -0 0 0 0 0 0 0 0 0 0 -0 0 0 0 0 0 0 0 0 0 0 0 0 0 0 0 0 0 0 0 0 0 0 -0 0 0 0 0 0 0 0 0 0
0 0 0 0 0 0 -0 0 0 0 0 0 0 0 0 0 -0 0 -0 0 0 0 0 0 0 0 0 0 0 1 0 0 0 0 0 0 0 0 0 0 0 0 0 0 0 0 0 0 0
0 0 -0 0 0 0 -0 -0 0 0 0 0 0 0 0 0 0 0 0 0 -0 0 0 0 0 0 0 0 1 0 0 0 0 0 0 0 0 0 0 0 0 0 0 0 0 0 0 0 0
0 0 -0 0 0 0 0 0 0 0 0 0 0 0 0 0 0 0 0 0 0 0 0 0 0 0 0 1 1 0 0 0 0 0 0 -0 0 0 0 0 0 0 0 0 0 0 0 0 0
0 0 0 0 0 0 0 0 0 0 0 0 0 0 0 0 0 0 0 0 0 0 -0 0 0 0 0 1 0 0 0 0 0 0 -0 0 0 0 0 0 0 0 0 0 0 0 0 0 0
-0 0 0 -0 0 0 0 0 0 0 0 0 0 0 0 1 0 0 1 1 0 0 0 0 0 1 0 0 0 0 0 0 0 0 0 0 0 0 0 0 0 0 0 0 0 0 0 0 0
-0 -0 -0 0 0 0 0 0 0 0 0 0 0 0 1 0 0 0 0 0 0 -0 0 0 1 1 1 0 0 0 0 0 0 0 0 0 0 0 0 0 0 0 0 0 0 0 0 0 0
-0 0 -0 0 0 0 0 0 -0 0 0 0 0 1 0 0 0 0 1 0 0 -0 0 0 1 1 1 0 0 0 0 0 0 0 0 0 0 0 0 0 0 0 0 0 0 0 0 0 0
0 0 0 -0 0 -0 0 -0 0 0 0 0 0 0 0 0 0 0 1 1 0 0 -0 0 0 0 0 0 0 0 0 0 0 0 0 0 0 0 0 0 0 0 0 0 0 0 0 0 0
-0 0 -0 -0 -0 -0 -0 0 0 0 0 0 0 0 0 0 0 -0 0 0 1 0 0 0 0 0 0 0 0 0 0 0 0 0 0 0 0 0 0 0 0 0 0 0 0 0 0 0 0
0 -0 0 -0 0 0 -0 0 0 0 0 0 0 0 0 0 0 0 0 1 0 0 0 0 0 0 0 0 0 0 0 0 0 0 0 0 0 0 0 0 0 0 0 0 0 0 0 0 0
0 0 0 0 0 0 0 0 0 0 -0 -0 -0 0 0 0 0 1 0 0 0 0 -0 -0 0 0 0 0 0 1 0 0 0 0 0 0 0 0 0 0 0 0 0 0 0 0 0 0 0
0 0 0 0 -0 -0 0 0 0 0 -0 0 -0 0 0 0 0 0 0 0 0 0 0 -0 -0 0 1 1 0 0 1 0 0 0 0 0 0 0 0 0 0 0 0 0 0 0 0 0 0
0 -0 0 0 0 -0 0 0 0 0 0 0 0 0 1 0 0 0 0 0 0 0 -0 0 -0 0 0 -0 0 1 1 1 0 0 0 0 0 0 0 0 0 0 0 0 0 0 0 0 0
0 -0 -0 -0 0 0 0 0 0 0 0 0 0 0 -0 0 0 0 0 0 -0 -0 -0 0 -0 0 0 -0 1 1 1 0 0 0 0 0 0 0 0 0 0 0 0 0 0 0 0 0 0
0 0 0 0 0 0 -0 0 -0 0 0 0 0 -0 -0 0 0 0 -0 0 -0 -0 -0 -0 -0 0 0 0 1 1 1 0 0 0 0 0 0 0 0 0 0 0 0 0 0 0 0 0 0
-0 -0 0 0 0 -0 -0 0 0 -0 0 -0 -0 -0 0 -0 -0 -0 -0 -0 -0 -0 -0 -0 0 0 0 1 0 0 0 0 0 0 0 0 0 0 0 0 0 0 0 0 0 0 0 0 0
0 0 0 0 0 0 -0 0 0 0 0 0 0 -0 0 0 -0 -0 -0 -0 -0 0 -0 0 0 0 0 0 0 0 0 0 0 0 0 0 0 0 0 0 0 0 0 0 0 0 0 0 0
0 0 0 0 0 0 0 0 -0 0 0 0 0 0 0 0 0 0 0 0 0 0 0 0 0 0 0 0 0 0 0 0 0 0 0 0 0 0 0 0 0 0 0 0 0 0 0 0 0
0 0 0 0 0 0 0 0 0 0 0 0 0 0 0 -0 0 0 0 0 0 -0 0 0 0 0 0 0 0 0 0 0 0 0 0 0 0 0 0 0 0 0 0 0 0 0 0 0 0
0 0 0 0 0 0 0 0 0 0 0 0 0 0 0 0 0 0 0 0 -0 0 0 0 0 0 0 0 0 0 0 0 0 0 0 0 0 0 0 0 0 0 0 0 0 0 0 -0 -0
0 -0 0 0 0 0 0 0 0 0 0 0 0 0 0 0 0 0 0 0 0 0 0 0 0 0 0 0 0 0 0 -0 0 0 0 0 0 0 0 0 0 0 0 0 0 0 0 0 0
Wind_Speed_500mb
34 33 25 7 8 9 7 3 11 22 7 14 28 10 8 13 9 7 34 54 43 39 36 34 29 25 23 21 19 17 17 17 19 21 22 24 25 28 30 32 34 34 35 35 35 34 34 33 30
17 25 16 9 9 8 11 5 14 15 26 37 30 20 11 0 15 29 57 38 46 38 34 32 28 24 21 19 16 16 15 15 16 19 20 22 24 26 27 29 31 34 36 38 37 38 40 38 34
18 21 24 8 6 2 7 4 24 39 53 43 15 27 16 18 26 49 45 49 41 31 30 27 25 23 21 17 14 13 13 13 14 15 16 18 20 20 21 25 28 32 35 39 40 42 43 43 37
18 12 17 7 9 10 12 11 43 37 37 36 33 10 12 35 39 35 42 36 29 22 24 23 23 22 21 18 15 13 11 12 12 11 13 15 17 16 16 21 26 28 33 38 36 44 48 44 38
15 12 11 10 15 17 9 16 57 18 13 30 29 14 24 16 32 40 38 32 22 32 25 20 21 21 19 15 13 12 11 10 10 10 14 16 15 14 13 14 23 25 26 30 31 36 46 40 30
7 5 7 7 5 19 15 47 47 31 34 34 32 27 14 31 33 36 31 30 22 18 19 20 20 18 16 13 11 12 14 11 12 14 16 16 13 12 14 12 15 21 22 23 26 27 36 38 25
3 9 13 15 13 12 7 22 39 34 37 22 51 11 30 40 33 39 34 27 22 18 7 7 15 16 16 15 14 15 13 12 13 19 22 22 19 11 7 9 11 14 18 20 25 25 29 41 34
17 10 7 7 13 12 11 10 33 51 26 44 43 14 26 45 45 34 32 22 26 22 10 3 15 16 17 17 19 16 15 14 13 13 16 17 19 13 9 2 9 8 12 15 23 27 33 40 45
18 9 8 11 16 19 28 12 28 16 46 28 22 35 40 34 52 36 32 35 35 30 21 13 17 19 16 22 21 21 19 11 11 17 17 20 17 15 10 7 6 5 12 18 26 35 40 40 51
3 11 23 21 23 18 40 8 18 15 30 9 28 36 42 36 50 44 37 42 43 37 27 22 19 17 19 26 25 20 21 10 25 25 35 27 16 16 16 14 12 12 19 26 36 39 43 43 53
7 10 15 22 38 60 35 27 19 25 7 46 60 58 43 39 45 50 40 39 34 34 32 26 21 24 22 23 24 20 24 20 10 8 31 36 20 16 13 14 17 21 25 33 33 44 45 46 54
8 21 26 26 43 39 37 25 10 18 22 56 66 69 48 55 60 61 45 43 25 40 39 34 28 30 27 16 20 20 21 20 16 19 19 40 41 19 17 21 25 30 31 32 44 46 47 50 47
6 5 20 39 56 52 45 33 20 18 21 62 73 74 36 54 61 46 39 16 36 22 39 38 24 34 30 14 20 19 20 18 18 10 27 35 28 22 22 28 29 28 27 37 47 45 49 48 43
18 27 18 26 49 51 26 14 12 13 35 79 78 66 51 61 38 23 36 22 22 39 42 37 31 31 25 12 15 20 23 17 18 16 21 25 20 21 30 28 24 32 37 44 47 48 49 46 46
16 14 13 24 33 12 29 9 14 17 37 70 75 62 59 64 34 35 18 27 55 64 62 50 25 30 18 17 15 18 15 12 14 15 24 26 27 29 34 28 38 35 42 45 47 47 50 49 49
9 12 9 7 17 12 9 14 35 23 39 50 59 49 64 69 38 38 33 43 37 101 87 36 25 12 21 21 15 13 9 6 4 11 21 27 31 32 39 36 34 36 41 44 46 46 48 46 53
14 3 7 20 13 11 14 8 22 16 42 41 42 55 63 63 55 35 24 20 14 35 17 31 14 15 6 7 13 17 13 9 5 9 15 32 38 39 42 38 39 40 43 48 45 46 47 42 57
10 5 4 3 12 11 16 22 23 9 43 52 52 58 57 48 29 25 24 30 17 9 42 8 5 19 22 13 12 16 13 15 18 28 32 34 35 39 40 40 42 44 46 43 46 53 49 51 61
6 11 5 7 10 8 8 19 14 24 40 40 57 57 42 39 33 28 17 19 23 9 28 14 23 6 22 33 20 19 12 14 22 22 30 37 33 35 37 42 43 48 44 45 54 55 48 53 60
13 10 5 7 11 19 24 15 12 23 14 13 34 40 33 38 27 23 22 27 25 22 31 17 8 9 20 22 24 23 19 18 21 24 32 28 29 34 37 44 46 46 44 51 48 44 46 55 42
7 11 8 2 8 9 12 14 16 17 28 16 26 16 30 35 31 19 22 23 26 20 12 25 17 13 6 16 26 28 23 24 25 28 24 21 21 26 36 39 39 41 44 42 42 41 46 43 32
8 6 4 9 7 6 9 3 13 14 20 27 32 14 25 41 35 20 15 12 11 9 21 17 5 27 17 5 19 23 22 32 35 35 26 27 32 25 27 30 33 40 43 44 41 46 42 35 38
2 13 17 10 14 14 21 12 15 7 19 19 36 39 12 34 41 29 10 9 3 7 5 15 28 21 8 12 18 30 22 30 36 34 35 32 39 34 43 48 45 45 49 48 48 45 43 39 39
5 16 18 12 7 11 10 10 12 9 11 12 34 42 40 36 28 21 3 1 11 10 11 21 23 15 18 19 25 28 34 39 43 44 29 33 36 45 43 47 50 44 40 44 42 36 36 40 37
23 17 9 11 11 6 9 13 12 8 16 16 29 45 39 36 26 22 16 5 10 16 18 17 14 23 22 23 29 33 38 42 39 35 31 35 40 45 40 38 49 58 59 44 39 36 41 41 35
12 11 9 1 2 5 10 5 6 2 31 54 52 48 44 37 26 11 21 23 13 17 12 17 12 16 11 21 25 23 23 21 20 23 28 35 34 30 37 52 49 41 36 37 37 35 28 27 25
10 11 12 10 5 8 6 10 8 34 38 60 60 78 66 61 50 24 28 36 33 30 30 31 31 29 29 26 22 21 19 22 30 37 40 36 38 42 40 43 40 42 36 37 33 25 25 25 24
11 3 6 8 3 5 7 2 3 20 20 22 39 52 42 38 34 39 34 32 32 31 34 35 31 29 28 23 23 26 29 38 46 51 52 45 40 36 35 39 36 34 32 25 20 22 24 23 17
11 9 9 6 8 8 5 5 5 14 9 14 30 39 34 32 34 36 30 33 34 39 43 39 32 32 28 25 28 34 43 50 56 52 42 45 41 30 32 35 35 29 25 27 25 23 24 24 22
5 4 8 8 9 3 8 2 12 10 24 37 37 40 41 40 38 30 32 36 40 40 33 32 34 41 37 37 45 53 48 54 51 42 46 38 37 31 29 29 28 27 29 29 29 29 29 31 29
Wind_Direction_500mb
17 19 16 63 52 57 287 255 123 101 74 131 142 150 146 128 160 204 156 161 180 164 162 162 158 150 143 135 126 117 109 105 101 96 92 88 88 83 77 69 62 54 47 40 33 28 24 19 15
43 17 52 25 70 29 293 231 93 110 127 121 112 118 60 268 137 143 155 169 168 164 165 163 160 155 148 141 134 125 118 110 101 98 96 93 94 90 79 67 55 44 35 27 19 17 15 12 7
30 48 38 52 97 299 277 273 111 123 130 129 114 121 123 117 142 145 157 162 161 166 165 164 163 162 158 150 142 135 125 117 112 109 109 107 102 94 82 66 52 41 34 23 23 26 17 10 3
360 64 49 60 306 259 204 258 122 118 127 121 125 94 112 139 151 160 155 154 158 178 168 173 172 170 167 161 154 144 136 132 129 128 127 118 104 90 72 64 44 39 27 26 28 24 16 13 12
18 112 73 340 327 321 335 133 130 135 119 120 116 104 120 172 168 158 161 162 159 156 160 175 181 175 172 170 162 149 145 147 156 157 144 129 102 74 62 61 37 31 25 22 18 16 16 18 23
52 143 109 134 278 287 332 136 122 132 135 123 115 116 123 153 172 171 170 178 175 171 161 178 179 182 177 176 167 161 166 167 174 168 154 138 119 114 76 43 25 21 18 17 9 5 9 9 356
247 120 161 177 183 273 243 164 137 142 150 161 141 114 150 161 169 175 185 193 188 193 165 167 188 189 191 184 178 181 182 185 179 177 178 171 166 147 106 58 6 9 8 1 353 348 353 351 343
275 94 166 320 163 236 266 143 171 155 180 153 145 145 169 178 171 173 184 210 210 202 194 170 194 195 198 186 186 189 191 194 203 215 204 191 188 174 159 15 353 343 353 326 328 332 329 327 339
253 108 211 205 147 226 240 149 171 161 146 167 184 150 160 168 166 183 180 189 200 207 199 204 176 180 184 190 194 200 198 193 259 239 234 222 216 221 211 220 283 296 298 296 319 317 328 314 327
287 148 213 185 175 196 215 157 162 137 155 130 132 142 149 163 172 188 192 196 202 210 206 219 193 179 185 199 212 232 205 252 304 277 273 230 201 212 219 223 213 235 280 296 310 314 322 314 319
206 231 203 175 187 187 192 213 187 158 119 157 143 153 155 177 192 193 199 216 222 225 214 214 202 193 202 204 229 239 235 283 307 279 259 208 218 222 235 235 238 270 274 289 302 316 318 314 316
290 261 172 153 167 160 172 178 223 196 134 153 147 153 153 198 196 199 199 203 218 231 225 217 200 203 200 210 216 232 244 273 278 271 233 219 233 238 240 262 280 280 283 298 318 318 315 309 310
173 288 145 178 161 161 162 189 185 201 160 153 152 165 184 197 201 195 203 230 209 205 211 194 202 207 207 228 221 227 245 258 261 239 178 187 203 229 258 274 279 300 306 316 322 314 311 316 316
297 60 52 74 176 163 159 209 172 187 139 156 168 181 180 186 204 220 222 189 212 198 214 228 213 226 241 239 221 239 239 218 220 195 192 205 229 240 269 289 299 318 319 321 323 319 321 323 314
38 43 18 55 145 174 145 1 243 204 162 160 185 191 181 187 191 243 230 163 321 226 237 235 210 210 239 260 238 207 194 187 183 198 223 232 243 252 279 285 311 314 318 322 321 323 323 316 311
18 63 21 325 156 219 158 280 240 226 172 164 188 183 191 199 217 244 198 227 335 219 273 188 187 215 250 272 249 218 217 194 213 305 256 251 270 262 285 295 304 299 302 306 310 318 312 311 310
7 17 44 344 331 138 214 263 245 190 151 134 141 182 193 203 223 233 207 248 303 309 114 137 192 246 263 256 229 237 253 274 285 314 278 283 273 267 277 290 294 286 290 299 310 308 311 306 320
309 91 57 269 4 327 343 5 25 62 150 140 157 175 189 205 228 167 223 195 207 47 353 54 350 319 307 289 228 228 251 268 291 291 290 283 272 261 269 272 271 274 287 302 301 307 309 312 323
254 145 94 261 258 15 324 51 13 57 103 129 158 174 184 204 177 157 157 194 178 36 175 156 189 207 314 305 253 236 285 287 302 290 291 290 278 272 272 276 281 286 295 298 299 301 302 310 319
94 118 221 282 271 88 77 31 345 35 98 139 173 195 211 201 173 126 104 127 146 71 58 54 126 207 273 279 262 286 291 291 300 291 290 275 274 273 286 288 290 290 283 286 289 292 301 311 308
41 61 8 281 348 97 101 36 10 330 354 73 78 190 198 209 175 169 142 116 113 46 23 150 169 199 261 246 273 290 294 302 293 297 292 277 276 275 274 278 280 281 286 289 293 301 309 310 303
46 255 38 334 18 70 19 24 355 330 329 356 24 127 208 201 181 184 203 190 322 280 151 128 24 262 340 144 275 278 292 299 304 308 285 286 293 288 290 295 296 299 303 303 307 312 319 301 305
318 46 24 4 76 87 356 71 281 336 348 341 345 22 77 185 191 187 214 339 44 40 327 307 324 293 292 325 288 282 294 304 305 296 298 286 290 299 308 311 317 314 311 312 315 318 312 303 301
24 40 33 40 65 51 312 112 305 6 315 32 50 83 100 137 149 161 164 96 17 344 307 293 308 319 314 318 303 303 298 295 296 296 296 300 310 320 320 316 316 315 314 311 306 308 309 306 300
58 50 2 18 19 186 283 59 239 337 2 43 88 82 88 111 121 111 90 22 338 338 343 360 319 337 321 309 298 297 293 290 294 311 315 322 326 322 327 326 322 316 314 316 314 312 315 300 293
62 104 127 92 141 246 350 121 322 223 55 70 72 96 90 92 90 123 55 43 33 45 26 21 25 349 294 288 315 339 342 350 351 346 332 323 326 326 325 321 321 324 321 318 314 319 311 301 303
321 41 176 122 55 68 318 328 305 52 59 64 73 82 82 87 87 80 74 75 73 62 50 34 24 30 29 19 17 7 4 357 354 349 343 339 329 331 334 332 333 334 331 322 320 322 331 326 318
76 64 40 24 76 96 318 333 276 69 90 81 84 95 98 96 96 88 82 72 57 45 33 22 18 22 18 13 11 8 6 359 352 345 342 344 347 347 348 352 351 352 354 6 3 342 344 338 326
356 10 32 112 116 144 173 315 14 138 167 109 115 99 103 86 91 82 73 55 50 35 19 15 22 23 23 17 6 360 357 353 349 351 2 2 1 360 8 11 14 17 5 354 354 351 346 345 335
43 66 86 112 296 73 133 294 345 230 138 114 117 99 82 91 85 79 66 45 32 25 23 25 23 16 15 5 1 354 357 359 359 10 11 16 22 25 24 16 18 1 4 360 0 353 345 325 314
Wind_Speed_850mb
34 33 25 7 8 9 7 3 11 22 7 14 28 10 8 13 9 7 34 54 43 39 36 34 29 25 23 21 19 17 17 17 19 21 22 24 25 28 30 32 34 34 35 35 35 34 34 33 30
17 25 16 9 9 8 11 5 14 15 26 37 30 20 11 0 15 29 57 38 46 38 34 32 28 24 21 19 16 16 15 15 16 19 20 22 24 26 27 29 31 34 36 38 37 38 40 38 34
18 21 24 8 6 2 7 4 24 39 53 43 15 27 16 18 26 49 45 49 41 31 30 27 25 23 21 17 14 13 13 13 14 15 16 18 20 20 21 25 28 32 35 39 40 42 43 43 37
18 12 17 7 9 10 12 11 43 37 37 36 33 10 12 35 39 35 42 36 29 22 24 23 23 22 21 18 15 13 11 12 12 11 13 15 17 16 16 21 26 28 33 38 36 44 48 44 38
15 12 11 10 15 17 9 16 57 18 13 30 29 14 24 16 32 40 38 32 22 32 25 20 21 21 19 15 13 12 11 10 10 10 14 16 15 14 13 14 23 25 26 30 31 36 46 40 30
7 5 7 7 5 19 15 47 47 31 34 34 32 27 14 31 33 36 31 30 22 18 19 20 20 18 16 13 11 12 14 11 12 14 16 16 13 12 14 12 15 21 22 23 26 27 36 38 25
3 9 13 15 13 12 7 22 39 34 37 22 51 11 30 40 33 39 34 27 22 18 7 7 15 16 16 15 14 15 13 12 13 19 22 22 19 11 7 9 11 14 18 20 25 25 29 41 34
17 10 7 7 13 12 11 10 33 51 26 44 43 14 26 45 45 34 32 22 26 22 10 3 15 16 17 17 19 16 15 14 13 13 16 17 19 13 9 2 9 8 12 15 23 27 33 40 45
18 9 8 11 16 19 28 12 28 16 46 28 22 35 40 34 52 36 32 35 35 30 21 13 17 19 16 22 21 21 19 11 11 17 17 20 17 15 10 7 6 5 12 18 26 35 40 40 51
3 11 23 21 23 18 40 8 18 15 30 9 28 36 42 36 50 44 37 42 43 37 27 22 19 17 19 26 25 20 21 10 25 25 35 27 16 16 16 14 12 12 19 26 36 39 43 43 53
7 10 15 22 38 60 35 27 19 25 7 46 60 58 43 39 45 50 40 39 34 34 32 26 21 24 22 23 24 20 24 20 10 8 31 36 20 16 13 14 17 21 25 33 33 44 45 46 54
8 21 26 26 43 39 37 25 10 18 22 56 66 69 48 55 60 61 45 43 25 40 39 34 28 30 27 16 20 20 21 20 16 19 19 40 41 19 17 21 25 30 31 32 44 46 47 50 47
6 5 20 39 56 52 45 33 20 18 21 62 73 74 36 54 61 46 39 16 36 22 39 38 24 34 30 14 20 19 20 18 18 10 27 35 28 22 22 28 29 28 27 37 47 45 49 48 43
18 27 18 26 49 51 26 14 12 13 35 79 78 66 51 61 38 23 36 22 22 39 42 37 31 31 25 12 15 20 23 17 18 16 21 25 20 21 30 28 24 32 37 44 47 48 49 46 46
16 14 13 24 33 12 29 9 14 17 37 70 75 62 59 64 34 35 18 27 55 64 62 50 25 30 18 17 15 18 15 12 14 15 24 26 27 29 34 28 38 35 42 45 47 47 50 49 49
9 12 9 7 17 12 9 14 35 23 39 50 59 49 64 69 38 38 33 43 37 101 87 36 25 12 21 21 15 13 9 6 4 11 21 27 31 32 39 36 34 36 41 44 46 46 48 46 53
14 3 7 20 13 11 14 8 22 16 42 41 42 55 63 63 55 35 24 20 14 35 17 31 14 15 6 7 13 17 13 9 5 9 15 32 38 39 42 38 39 40 43 48 45 46 47 42 57
10 5 4 3 12 11 16 22 23 9 43 52 52 58 57 48 29 25 24 30 17 9 42 8 5 19 22 13 12 16 13 15 18 28 32 34 35 39 40 40 42 44 46 43 46 53 49 51 61
6 11 5 7 10 8 8 19 14 24 40 40 57 57 42 39 33 28 17 19 23 9 28 14 23 6 22 33 20 19 12 14 22 22 30 37 33 35 37 42 43 48 44 45 54 55 48 53 60
13 10 5 7 11 19 24 15 12 23 14 13 34 40 33 38 27 23 22 27 25 22 31 17 8 9 20 22 24 23 19 18 21 24 32 28 29 34 37 44 46 46 44 51 48 44 46 55 42
7 11 8 2 8 9 12 14 16 17 28 16 26 16 30 35 31 19 22 23 26 20 12 25 17 13 6 16 26 28 23 24 25 28 24 21 21 26 36 39 39 41 44 42 42 41 46 43 32
8 6 4 9 7 6 9 3 13 14 20 27 32 14 25 41 35 20 15 12 11 9 21 17 5 27 17 5 19 23 22 32 35 35 26 27 32 25 27 30 33 40 43 44 41 46 42 35 38
2 13 17 10 14 14 21 12 15 7 19 19 36 39 12 34 41 29 10 9 3 7 5 15 28 21 8 12 18 30 22 30 36 34 35 32 39 34 43 48 45 45 49 48 48 45 43 39 39
5 16 18 12 7 11 10 10 12 9 11 12 34 42 40 36 28 21 3 1 11 10 11 21 23 15 18 19 25 28 34 39 43 44 29 33 36 45 43 47 50 44 40 44 42 36 36 40 37
23 17 9 11 11 6 9 13 12 8 16 16 29 45 39 36 26 22 16 5 10 16 18 17 14 23 22 23 29 33 38 42 39 35 31 35 40 45 40 38 49 58 59 44 39 36 41 41 35
12 11 9 1 2 5 10 5 6 2 31 54 52 48 44 37 26 11 21 23 13 17 12 17 12 16 11 21 25 23 23 21 20 23 28 35 34 30 37 52 49 41 36 37 37 35 28 27 25
10 11 12 10 5 8 6 10 8 34 38 60 60 78 66 61 50 24 28 36 33 30 30 31 31 29 29 26 22 21 19 22 30 37 40 36 38 42 40 43 40 42 36 37 33 25 25 25 24
11 3 6 8 3 5 7 2 3 20 20 22 39 52 42 38 34 39 34 32 32 31 34 35 31 29 28 23 23 26 29 38 46 51 52 45 40 36 35 39 36 34 32 25 20 22 24 23 17
11 9 9 6 8 8 5 5 5 14 9 14 30 39 34 32 34 36 30 33 34 39 43 39 32 32 28 25 28 34 43 50 56 52 42 45 41 30 32 35 35 29 25 27 25 23 24 24 22
5 4 8 8 9 3 8 2 12 10 24 37 37 40 41 40 38 30 32 36 40 40 33 32 34 41 37 37 45 53 48 54 51 42 46 38 37 31 29 29 28 27 29 29 29 29 29 31 29
Wind_Direction_850mb
17 19 16 63 52 57 287 255 123 101 74 131 142 150 146 128 160 204 156 161 180 164 162 162 158 150 143 135 126 117 109 105 101 96 92 88 88 83 77 69 62 54 47 40 33 28 24 19 15
43 17 52 25 70 29 293 231 93 110 127 121 112 118 60 268 137 143 155 169 168 164 165 163 160 155 148 141 134 125 118 110 101 98 96 93 94 90 79 67 55 44 35 27 19 17 15 12 7
30 48 38 52 97 299 277 273 111 123 130 129 114 121 123 117 142 145 157 162 161 166 165 164 163 162 158 150 142 135 125 117 112 109 109 107 102 94 82 66 52 41 34 23 23 26 17 10 3
360 64 49 60 306 259 204 258 122 118 127 121 125 94 112 139 151 160 155 154 158 178 168 173 172 170 167 161 154 144 136 132 129 128 127 118 104 90 72 64 44 39 27 26 28 24 16 13 12
18 112 73 340 327 321 335 133 130 135 119 120 116 104 120 172 168 158 161 162 159 156 160 175 181 175 172 170 162 149 145 147 156 157 144 129 102 74 62 61 37 31 25 22 18 16 16 18 23
52 143 109 134 278 287 332 136 122 132 135 123 115 116 123 153 172 171 170 178 175 171 161 178 179 182 177 176 167 161 166 167 174 168 154 138 119 114 76 43 25 21 18 17 9 5 9 9 356
247 120 161 177 183 273 243 164 137 142 150 161 141 114 150 161 169 175 185 193 188 193 165 167 188 189 191 184 178 181 182 185 179 177 178 171 166 147 106 58 6 9 8 1 353 348 353 351 343
275 94 166 320 163 236 266 143 171 155 180 153 145 145 169 178 171 173 184 210 210 202 194 170 194 195 198 186 186 189 191 194 203 215 204 191 188 174 159 15 353 343 353 326 328 332 329 327 339
253 108 211 205 147 226 240 149 171 161 146 167 184 150 160 168 166 183 180 189 200 207 199 204 176 180 184 190 194 200 198 193 259 239 234 222 216 221 211 220 283 296 298 296 319 317 328 314 327
287 148 213 185 175 196 215 157 162 137 155 130 132 142 149 163 172 188 192 196 202 210 206 219 193 179 185 199 212 232 205 252 304 277 273 230 201 212 219 223 213 235 280 296 310 314 322 314 319
206 231 203 175 187 187 192 213 187 158 119 157 143 153 155 177 192 193 199 216 222 225 214 214 202 193 202 204 229 239 235 283 307 279 259 208 218 222 235 235 238 270 274 289 302 316 318 314 316
290 261 172 153 167 160 172 178 223 196 134 153 147 153 153 198 196 199 199 203 218 231 225 217 200 203 200 210 216 232 244 273 278 271 233 219 233 238 240 262 280 280 283 298 318 318 315 309 310
173 288 145 178 161 161 162 189 185 201 160 153 152 165 184 197 201 195 203 230 209 205 211 194 202 207 207 228 221 227 245 258 261 239 178 187 203 229 258 274 279 300 306 316 322 314 311 316 316
297 60 52 74 176 163 159 209 172 187 139 156 168 181 180 186 204 220 222 189 212 198 214 228 213 226 241 239 221 239 239 218 220 195 192 205 229 240 269 289 299 318 319 321 323 319 321 323 314
38 43 18 55 145 174 145 1 243 204 162 160 185 191 181 187 191 243 230 163 321 226 237 235 210 210 239 260 238 207 194 187 183 198 223 232 243 252 279 285 311 314 318 322 321 323 323 316 311
18 63 21 325 156 219 158 280 240 226 172 164 188 183 191 199 217 244 198 227 335 219 273 188 187 215 250 272 249 218 217 194 213 305 256 251 270 262 285 295 304 299 302 306 310 318 312 311 310
7 17 44 344 331 138 214 263 245 190 151 134 141 182 193 203 223 233 207 248 303 309 114 137 192 246 263 256 229 237 253 274 285 314 278 283 273 267 277 290 294 286 290 299 310 308 311 306 320
309 91 57 269 4 327 343 5 25 62 150 140 157 175 189 205 228 167 223 195 207 47 353 54 350 319 307 289 228 228 251 268 291 291 290 283 272 261 269 272 271 274 287 302 301 307 309 312 323
254 145 94 261 258 15 324 51 13 57 103 129 158 174 184 204 177 157 157 194 178 36 175 156 189 207 314 305 253 236 285 287 302 290 291 290 278 272 272 276 281 286 295 298 299 301 302 310 319
94 118 221 282 271 88 77 31 345 35 98 139 173 195 211 201 173 126 104 127 146 71 58 54 126 207 273 279 262 286 291 291 300 291 290 275 274 273 286 288 290 290 283 286 289 292 301 311 308
41 61 8 281 348 97 101 36 10 330 354 73 78 190 198 209 175 169 142 116 113 46 23 150 169 199 261 246 273 290 294 302 293 297 292 277 276 275 274 278 280 281 286 289 293 301 309 310 303
46 255 38 334 18 70 19 24 355 330 329 356 24 127 208 201 181 184 203 190 322 280 151 128 24 262 340 144 275 278 292 299 304 308 285 286 293 288 290 295 296 299 303 303 307 312 319 301 305
318 46 24 4 76 87 356 71 281 336 348 341 345 22 77 185 191 187 214 339 44 40 327 307 324 293 292 325 288 282 294 304 305 296 298 286 290 299 308 311 317 314 311 312 315 318 312 303 301
24 40 33 40 65 51 312 112 305 6 315 32 50 83 100 137 149 161 164 96 17 344 307 293 308 319 314 318 303 303 298 295 296 296 296 300 310 320 320 316 316 315 314 311 306 308 309 306 300
58 50 2 18 19 186 283 59 239 337 2 43 88 82 88 111 121 111 90 22 338 338 343 360 319 337 321 309 298 297 293 290 294 311 315 322 326 322 327 326 322 316 314 316 314 312 315 300 293
62 104 127 92 141 246 350 121 322 223 55 70 72 96 90 92 90 123 55 43 33 45 26 21 25 349 294 288 315 339 342 350 351 346 332 323 326 326 325 321 321 324 321 318 314 319 311 301 303
321 41 176 122 55 68 318 328 305 52 59 64 73 82 82 87 87 80 74 75 73 62 50 34 24 30 29 19 17 7 4 357 354 349 343 339 329 331 334 332 333 334 331 322 320 322 331 326 318
76 64 40 24 76 96 318 333 276 69 90 81 84 95 98 96 96 88 82 72 57 45 33 22 18 22 18 13 11 8 6 359 352 345 342 344 347 347 348 352 351 352 354 6 3 342 344 338 326
356 10 32 112 116 144 173 315 14 138 167 109 115 99 103 86 91 82 73 55 50 35 19 15 22 23 23 17 6 360 357 353 349 351 2 2 1 360 8 11 14 17 5 354 354 351 346 345 335
43 66 86 112 296 73 133 294 345 230 138 114 117 99 82 91 85 79 66 45 32 25 23 25 23 16 15 5 1 354 357 359 359 10 11 16 22 25 24 16 18 1 4 360 0 353 345 325 314